Palmdale, CA

11:53 AM PST on February 14, 2016 (GMT -0800)
Palmdale Af Plant 42

Weather History for KPMD - August, 2014

Change the Weather History Date:

Friday, August 15, 2014

  Actual Average Record
Temperature  
Mean Temperature 77 °F 82 °F  
Max Temperature 95 °F 98 °F 109 °F (1994)
Min Temperature 59 °F 66 °F 41 °F (1979)
Degree Days  
Heating Degree Days 0 0  
Month to date heating degree days 0 0  
Since 1 June heating degree days 0 7  
Since 1 July heating degree days 0 0  
Cooling Degree Days 12 17  
Month to date cooling degree days 249 261  
Year to date cooling degree days 1474 1239  
Since 1 June cooling degree days 1255 1069  
Growing Degree Days 28 (Base 50)    
Moisture  
Dew Point 43 °F    
Average Humidity 31    
Maximum Humidity 45    
Minimum Humidity 17    
Precipitation  
Precipitation 0.00 in 0.00 in 0.15 in (1933)
Month to date precipitation 0.04 0.04  
Year to date precipitation 3.09 5.46  
Since 1 July precipitation 0.04  
Snow  
Snow 0.00 in - - ()
Month to date snowfall 0.0  
Since 1 June snowfall 0.0  
Since 1 July snowfall 0.0  
Snow Depth 0.00 in    
Sea Level Pressure  
Sea Level Pressure 29.94 in    
Wind  
Wind Speed 10 mph (SW)    
Max Wind Speed 28 mph    
Max Gust Speed 35 mph    
Visibility 10 miles    
Events      
T = Trace of Precipitation, MM = Missing Value Source: NWS Daily Summary

Daily Weather History Graph

Daily Weather History Graph

Search for Another Location

Airport or City:

Trip Planner

Search our weather history database for the weather conditions in past years. The results will help you decide how hot, cold, wet, or windy it might be!

Date:

Astronomy

Aug. 15, 2014 Rise Set
Actual Time 6:13 AM PDT 7:39 PM PDT
Civil Twilight 5:46 AM PDT 8:06 PM PDT
Nautical Twilight 5:14 AM PDT 8:38 PM PDT
Astronomical Twilight 4:40 AM PDT 9:11 PM PDT
Moon 11:02 PM PDT (8/15) 11:44 AM PDT (8/15)
Length of Visible Light 14h 20m
Length of Day
13h 26m
Waning Gibbous, 68% of the Moon is Illuminated
Aug 15
Waning Gibbous
Aug 17
Last Quarter
Aug 25
New
Sep 2
First Quarter
Sep 8
Full

Hourly Weather History & Observations

Time (PDT) Temp. Dew Point Humidity Pressure Visibility Wind Dir Wind Speed Gust Speed Precip Events Conditions
12:53 AM 72.0 °F 36.0 °F 27% 29.93 in 10.0 mi West 6.9 mph - N/A   Clear
1:53 AM 69.1 °F 37.0 °F 31% 29.93 in 10.0 mi SSE 3.5 mph - N/A   Clear
2:53 AM 64.9 °F 37.9 °F 37% 29.93 in 10.0 mi Variable 3.5 mph - N/A   Clear
3:53 AM 63.0 °F 39.9 °F 43% 29.94 in 10.0 mi SSE 5.8 mph - N/A   Clear
4:53 AM 66.0 °F 45.0 °F 47% 29.94 in 10.0 mi SSE 4.6 mph - N/A   Clear
5:53 AM 61.0 °F 42.1 °F 50% 29.95 in 10.0 mi South 4.6 mph - N/A   Clear
6:53 AM 62.1 °F 42.1 °F 48% 29.97 in 10.0 mi South 3.5 mph - N/A   Clear
7:53 AM 73.0 °F 42.1 °F 33% 29.98 in 10.0 mi SSE 4.6 mph - N/A   Clear
8:53 AM 78.1 °F 37.9 °F 24% 29.99 in 10.0 mi SE 5.8 mph - N/A   Clear
9:53 AM 82.9 °F 35.1 °F 18% 29.98 in 10.0 mi Calm Calm - N/A   Clear
10:53 AM 87.1 °F 37.9 °F 18% 29.99 in 10.0 mi Calm Calm - N/A   Clear
11:53 AM 91.9 °F 41.0 °F 17% 29.96 in 10.0 mi West 11.5 mph 20.7 mph N/A   Clear
12:53 PM 91.9 °F 46.9 °F 21% 29.95 in 10.0 mi West 11.5 mph 25.3 mph N/A   Clear
1:53 PM 93.9 °F 48.9 °F 21% 29.93 in 10.0 mi WSW 23.0 mph 28.8 mph N/A   Clear
2:53 PM 95.0 °F 48.0 °F 20% 29.91 in 10.0 mi WSW 25.3 mph 31.1 mph N/A   Clear
3:53 PM 93.9 °F 46.0 °F 19% 29.91 in 10.0 mi WSW 24.2 mph 31.1 mph N/A   Clear
4:53 PM 93.0 °F 44.1 °F 18% 29.90 in 10.0 mi WSW 21.9 mph 31.1 mph N/A   Clear
5:53 PM 91.0 °F 46.9 °F 22% 29.91 in 10.0 mi WSW 20.7 mph - N/A   Clear
6:53 PM 88.0 °F 46.0 °F 23% 29.91 in 10.0 mi WSW 19.6 mph - N/A   Clear
7:53 PM 84.0 °F 48.9 °F 29% 29.92 in 10.0 mi SW 15.0 mph - N/A   Clear
8:53 PM 82.0 °F 48.0 °F 30% 29.94 in 10.0 mi SW 11.5 mph - N/A   Clear
10:53 PM 78.1 °F 46.9 °F 33% 29.96 in 10.0 mi WSW 5.8 mph - N/A   Clear
11:53 PM 77.0 °F 46.9 °F 34% 29.95 in 10.0 mi SSW 8.1 mph - N/A   Clear